(243828) = 2000 TH25

Discovered at Socorro on 2000-10-02 by LINEAR.

Orbit

Orbit type: Main Belt

Note: WebGL enabled browser required.

epoch2024-03-31.0
epoch JD2460400.5
perihelion date2022-04-08.28342
perihelion JD2459677.78342
argument of perihelion (°)164.99504
ascending node (°)218.06158
inclination (°)9.23261
eccentricity0.1089873
perihelion distance (AU)2.7358300
Tisserand w.r.t. Jupiter3.2
ΔV w.r.t. Earth (km/sec)10.7
semimajor axis (AU)3.0704726
mean anomaly (°)132.39270
mean daily motion (°/day)0.18318760
aphelion distance (AU)3.405
period (years)5.38
P-vector [x]0.91805050
P-vector [y]0.34522276
P-vector [z]0.19494750
Q-vector [x]-0.38392607
Q-vector [y]0.89679726
Q-vector [z]0.21989870
absolute magnitude15.43
phase slope0.15
uncertainty0
referenceMPEC 2024-E133
observations used745
oppositions18
arc length (days)8536
first opposition used2000
last opposition used2024
residual rms (arc-secs)0.71
perturbers coarse indicatorM-v
perturbers precise indicator003Ek
first observation date used2000-10-02.0
last observation date used2024-02-15.0
computer nameMPCLINUX
JD of orbit computation2456847.662975
perihelion JD uncertainty (days)9.4767E-05
argument of perihelion uncertainty (°)2.2341E-05
ascending node uncertainty (°)1.6590E-05
inclination uncertainty (°)3.7304E-06
eccentricity uncertainty 3.6672E-08
perihelion distance uncertainty (AU)1.0481E-07
Minimum Orbit Intersection Distances (in AU)
for orbit epoch: 2460400.5, reference: E2024-G88
Mercury2.39935
Venus2.01463
Earth1.741
Mars1.29233
Jupiter2.03779
Saturn6.08155
Uranus15.1168
Neptune27.0713

Observations

756 total observations over interval: 2000 10 02.38301 – 2024 02 15.437259
These data are available for download (format description).

Date (UT) J2000 RA J2000 Dec Magn Location Ref
2000 10 02.38301 01 41 00.86 +14 55 12.2 19.0   704 – Lincoln Laboratory ETS, New Mexico MPS 20310
2000 10 02.39797 01 41 00.28 +14 55 05.6 19.3   704 – Lincoln Laboratory ETS, New Mexico MPS 20310
2000 10 02.41345 01 40 59.73 +14 54 59.5 19.2   704 – Lincoln Laboratory ETS, New Mexico MPS 20310
2000 10 02.42837 01 40 59.11 +14 54 54.1 19.2   704 – Lincoln Laboratory ETS, New Mexico MPS 20310
2000 10 03.35159 01 40 24.05 +14 48 55.6 19.4   704 – Lincoln Laboratory ETS, New Mexico MPS 20310
2000 10 03.36653 01 40 23.59 +14 48 50.2 19.8   704 – Lincoln Laboratory ETS, New Mexico MPS 20310
2000 10 03.38148 01 40 22.86 +14 48 44.3 20.3   704 – Lincoln Laboratory ETS, New Mexico MPS 20310
2000 10 03.39647 01 40 22.26 +14 48 39.1 20.3   704 – Lincoln Laboratory ETS, New Mexico MPS 20310
2000 10 03.41147 01 40 21.65 +14 48 31.9 20.0   704 – Lincoln Laboratory ETS, New Mexico MPS 20310
2000 10 06.32242 01 38 26.98 +14 28 57.8 18.6 R 699 – Lowell Observatory-LONEOS MPS 20310
2000 10 06.36435 01 38 25.21 +14 28 40.7   699 – Lowell Observatory-LONEOS MPS 20310
2000 10 06.40626 01 38 23.43 +14 28 23.0   699 – Lowell Observatory-LONEOS MPS 20310
2000 10 06.44821 01 38 21.64 +14 28 06.5   699 – Lowell Observatory-LONEOS MPS 20310
2000 10 07.31299 01 37 46.77 +14 22 04.3 19.1 R 699 – Lowell Observatory-LONEOS MPS 21458
2000 10 07.35491 01 37 44.91 +14 21 47.4   699 – Lowell Observatory-LONEOS MPS 21458
2000 10 07.39687 01 37 43.13 +14 21 29.1   699 – Lowell Observatory-LONEOS MPS 21458
2000 10 07.43889 01 37 41.31 +14 21 11.2   699 – Lowell Observatory-LONEOS MPS 21458
2000 10 31.23035 01 21 02.14 +11 17 39.0 19.8   704 – Lincoln Laboratory ETS, New Mexico MPS 21458
2000 10 31.24434 01 21 01.53 +11 17 32.1 19.3   704 – Lincoln Laboratory ETS, New Mexico MPS 21458
2000 10 31.25829 01 21 01.09 +11 17 25.1 19.2   704 – Lincoln Laboratory ETS, New Mexico MPS 21458
2000 10 31.27254 01 21 00.49 +11 17 19.2 20.0   704 – Lincoln Laboratory ETS, New Mexico MPS 21458
2000 11 02.24842 01 19 47.69 +11 02 11.6 20.0 V 691 – Steward Observatory, Kitt Peak-Spacewatch MPS 21458
2000 11 02.25224 01 19 47.56 +11 02 10.0 19.4 V 691 – Steward Observatory, Kitt Peak-Spacewatch MPS 21458
2000 11 02.25638 01 19 47.40 +11 02 08.0 19.3 V 691 – Steward Observatory, Kitt Peak-Spacewatch MPS 21458
2000 11 19.16144 01 12 12.62 +09 09 28.3 20.3 V 691 – Steward Observatory, Kitt Peak-Spacewatch MPS 22586
2000 11 19.18756 01 12 12.16 +09 09 19.9 20.1 V 691 – Steward Observatory, Kitt Peak-Spacewatch MPS 22586
2000 11 19.21910 01 12 11.59 +09 09 09.4 20.2 V 691 – Steward Observatory, Kitt Peak-Spacewatch MPS 22586
2002 02 11.23939 07 54 55.70 +07 24 08.3 19.8   704 – Lincoln Laboratory ETS, New Mexico MPS 178228
2002 02 11.25398 07 54 55.19 +07 24 11.5 20.4   704 – Lincoln Laboratory ETS, New Mexico MPS 178228
2002 02 11.26963 07 54 54.46 +07 24 14.2 20.3   704 – Lincoln Laboratory ETS, New Mexico MPS 178228
2002 02 11.28418 07 54 53.95 +07 24 19.4 20.2   704 – Lincoln Laboratory ETS, New Mexico MPS 178228
2002 02 11.29871 07 54 53.46 +07 24 22.2 20.0   704 – Lincoln Laboratory ETS, New Mexico MPS 178228
2003 03 27.22201 12 47 54.16 -11 18 45.8 21.1   644 – Palomar Mountain/NEAT MPS 178228
2003 03 27.30127 12 47 50.73 -11 18 18.1 19.9   644 – Palomar Mountain/NEAT MPS 178228
2003 03 27.36439 12 47 47.98 -11 17 55.1 20.7   644 – Palomar Mountain/NEAT MPS 178228
2005 09 23.19927 22 37 55.03 +03 01 47.6 19.1 R 644 – Palomar Mountain/NEAT MPS 143410
2005 09 23.22020 22 37 54.25 +03 01 38.3 19.3 R 644 – Palomar Mountain/NEAT MPS 143410
2005 09 23.24198 22 37 53.48 +03 01 28.7 18.7 R 644 – Palomar Mountain/NEAT MPS 143410
2005 09 30.15266 22 34 21.32 +02 11 18.2 19.1 V 703 – Catalina Sky Survey MPS 143410
2005 09 30.15917 22 34 21.14 +02 11 16.5 19.5 V 703 – Catalina Sky Survey MPS 143410
2005 09 30.16568 22 34 20.74 +02 11 10.1 18.8 V 703 – Catalina Sky Survey MPS 143410
2005 09 30.17219 22 34 20.71 +02 11 08.5 19.1 V 703 – Catalina Sky Survey MPS 143410
2005 10 01.19756 22 33 53.53 +02 03 51.1 19.3 R 699 – Lowell Observatory-LONEOS MPS 143410
2005 10 01.21955 22 33 53.06 +02 03 40.4   699 – Lowell Observatory-LONEOS MPS 143410
2005 10 01.24160 22 33 52.34 +02 03 32.2   699 – Lowell Observatory-LONEOS MPS 143410
2005 10 01.26365 22 33 51.77 +02 03 24.1   699 – Lowell Observatory-LONEOS MPS 143410
2005 10 12.183987 22 30 24.829 +00 50 21.21 20.04 V 645 – Apache Point-Sloan Digital Sky Survey MPS 390401
2005 10 12.187459 22 30 24.780 +00 50 19.98 20.93   645 – Apache Point-Sloan Digital Sky Survey MPS 390401
2005 10 13.181187 22 30 13.839 +00 44 15.41 20.13 V 645 – Apache Point-Sloan Digital Sky Survey MPS 390401
2005 10 13.184659 22 30 13.810 +00 44 13.94 20.76   645 – Apache Point-Sloan Digital Sky Survey MPS 390401
2005 10 26.167877 22 29 57.957 -00 23 46.02 19.98 V 645 – Apache Point-Sloan Digital Sky Survey MPS 390401
2005 10 26.171349 22 29 57.980 -00 23 46.91 20.87   645 – Apache Point-Sloan Digital Sky Survey MPS 390401
2005 10 27.188867 22 30 06.737 -00 28 07.52 20.23 V 645 – Apache Point-Sloan Digital Sky Survey MPS 390401
2005 10 27.192339 22 30 06.765 -00 28 08.35 21.25   645 – Apache Point-Sloan Digital Sky Survey MPS 390401
2005 10 31.152767 22 30 54.794 -00 43 34.26 20.38 V 645 – Apache Point-Sloan Digital Sky Survey MPS 390401
2005 10 31.156239 22 30 54.838 -00 43 35.03 21.22   645 – Apache Point-Sloan Digital Sky Survey MPS 390401
2005 11 02.242647 22 31 28.740 -00 50 44.77 20.22 V 645 – Apache Point-Sloan Digital Sky Survey MPS 390401
2005 11 02.246119 22 31 28.798 -00 50 45.48 20.92   645 – Apache Point-Sloan Digital Sky Survey MPS 390401
2005 11 03.175917 22 31 45.946 -00 53 43.83 20.12 V 645 – Apache Point-Sloan Digital Sky Survey MPS 390401
2005 11 03.179389 22 31 46.008 -00 53 44.57 20.93   645 – Apache Point-Sloan Digital Sky Survey MPS 390401
2005 11 06.163307 22 32 48.668 -01 02 22.14 20.49 V 645 – Apache Point-Sloan Digital Sky Survey MPS 390401
2005 11 06.166779 22 32 48.744 -01 02 22.76 21.17   645 – Apache Point-Sloan Digital Sky Survey MPS 390401
2005 11 07.207247 22 33 13.316 -01 05 03.42 20.39 V 645 – Apache Point-Sloan Digital Sky Survey MPS 390401
2005 11 07.210719 22 33 13.397 -01 05 03.98 21.33   645 – Apache Point-Sloan Digital Sky Survey MPS 390401
2005 11 11.167527 22 34 59.823 -01 13 41.31 20.78 V 645 – Apache Point-Sloan Digital Sky Survey MPS 390401
2005 11 11.170999 22 34 59.937 -01 13 41.23 21.54   645 – Apache Point-Sloan Digital Sky Survey MPS 390401
2006 11 28.32548 06 18 33.05 +13 33 18.4 20.3 C 704 – Lincoln Laboratory ETS, New Mexico MPS 293151
2006 11 28.33841 06 18 32.66 +13 33 14.2 19.5 C 704 – Lincoln Laboratory ETS, New Mexico MPS 293151
2006 11 28.35136 06 18 31.99 +13 33 13.0 19.6 C 704 – Lincoln Laboratory ETS, New Mexico MPS 293151
2006 11 28.36431 06 18 31.40 +13 33 10.2   704 – Lincoln Laboratory ETS, New Mexico MPS 293151
2006 11 28.37723 06 18 30.86 +13 33 06.4 20.5 C 704 – Lincoln Laboratory ETS, New Mexico MPS 293151
2008 03 12.32137 11 03 14.32 -04 39 27.2 20.0 V G96 – Mt. Lemmon Survey MPS 241962
2008 03 12.32847 11 03 14.00 -04 39 24.8 20.2 V G96 – Mt. Lemmon Survey MPS 241962
2008 03 12.33559 11 03 13.68 -04 39 22.2 20.1 V G96 – Mt. Lemmon Survey MPS 241962
2008 03 12.34270 11 03 13.35 -04 39 19.3 19.9 V G96 – Mt. Lemmon Survey MPS 241962
2009 04 17.39591 15 43 37.29 -17 20 58.2 20.9 V 691 – Steward Observatory, Kitt Peak-Spacewatch MPS 283707
2009 04 17.41362 15 43 36.73 -17 20 53.9 21.0 V 691 – Steward Observatory, Kitt Peak-Spacewatch MPS 283707
2009 04 17.43476 15 43 36.06 -17 20 48.8 20.8 V 691 – Steward Observatory, Kitt Peak-Spacewatch MPS 283707
2009 04 21.37845 15 41 24.20 -17 03 56.8 20.1 V 691 – Steward Observatory, Kitt Peak-Spacewatch MPS 284219
2009 04 21.39612 15 41 23.52 -17 03 52.7 20.2 V 691 – Steward Observatory, Kitt Peak-Spacewatch MPS 284219
2009 04 21.41381 15 41 22.87 -17 03 47.9 20.8 V 691 – Steward Observatory, Kitt Peak-Spacewatch MPS 284219
2009 04 29.30587 15 36 18.53 -16 27 35.5 20.1 V 691 – Steward Observatory, Kitt Peak-Spacewatch MPS 285629
2009 04 29.32355 15 36 17.73 -16 27 30.1 20.1 V 691 – Steward Observatory, Kitt Peak-Spacewatch MPS 285629
